Home   Weather   Cayo Largo   Past weeks
Flag for Cuba

Past Weather in Cayo Largo, Cuba — Yesterday and Last 2 Weeks

Now
81 °F

Partly sunny.


Feels Like: 84 °F
Forecast: N/A
Wind: 12 mph from North

Location: Aeropuerto Jose Marti - Rancho-Boyeros - Habana

Current Time: Apr 1, 2020 at 6:11:08 pm

Latest Report: Apr 1, 2020 at 5:55 pm


Visibility: N/A

Pressure: 29.86 "Hg

Humidity: 70%

Dew Point: 70 °F

Location of Cayo LargoLocation

Past Weather in Cayo Largo — Graph

°F

Cayo Largo Temperature Yesterday

Maximum temperature yesterday: 90 °F (at 1:55 pm)
Minimum temperature yesterday: 70 °F (at 2:55 am)
Average temperature yesterday: 78 °F

High & Low Weather Summary for the Past Weeks

 TemperatureHumidityPressure
High91 °F (Mar 27, 2:55 pm)100% (Mar 18, 5:55 am)30.24 "Hg (Mar 18, 5:55 am)
Low61 °F (Mar 25, 7:55 am)28% (Mar 28, 1:55 pm)29.83 "Hg (Apr 1, 4:55 pm)
Average77 °F73%30.07 "Hg
* Reported Mar 17 4:16 pm — Apr 1 4:55 pm, Cayo Largo. Weather by CustomWeather, © 2020

Note: Actual official high and low records may vary slightly from our data, if they occured in-between our weather recording intervals... More about our weather records

Cayo Largo Weather History for the Previous 24 Hours

Scroll right to see more
 ConditionsComfort  
Time TempWeatherWind HumidityBarometerVisibility
4:55 pm
Wed, Apr 1
81 °FPartly sunny.17 mph74%29.83 "Hg6 mi
3:55 pm84 °FPartly sunny.16 mph62%29.86 "Hg6 mi
2:55 pm86 °FPartly sunny.17 mph62%29.86 "HgN/A
1:55 pm86 °FPartly sunny.17 mph59%29.86 "HgN/A
12:55 pm86 °FPartly sunny.16 mph59%29.89 "HgN/A
11:55 am86 °FPartly sunny.12 mph55%29.89 "HgN/A
10:55 am82 °FPartly sunny.12 mph66%29.89 "HgN/A
9:55 am81 °FPassing clouds.9 mph74%29.89 "HgN/A
8:55 am73 °FPassing clouds.3 mph100%29.89 "Hg6 mi
7:55 am68 °FPassing clouds.3 mph100%29.89 "Hg5 mi
7:29 am70 °FPassing clouds.3 mph100%29.86 "Hg4 mi
6:55 am68 °FMild.6 mph100%29.86 "Hg4 mi
5:55 am68 °FClear.2 mph100%29.86 "Hg6 mi
4:55 am68 °FClear.2 mph100%29.86 "Hg6 mi
2:55 am70 °FClear.2 mph100%29.86 "Hg6 mi
1:55 am72 °FPassing clouds.3 mph100%29.89 "Hg6 mi
12:55 am72 °FPassing clouds.2 mph100%29.89 "Hg6 mi
11:55 pm
Tue, Mar 31
72 °FPassing clouds.1 mph100%29.89 "Hg6 mi
10:55 pm73 °FPassing clouds.No wind94%29.89 "Hg6 mi
9:55 pm75 °FPassing clouds.2 mph100%29.92 "Hg6 mi
8:55 pm75 °FPassing clouds.No wind94%29.89 "Hg6 mi
7:55 pm75 °FPassing clouds.2 mph89%29.89 "Hg5 mi
7:11 pm75 °FBroken clouds.8 mph89%29.89 "Hg4 mi
6:55 pm73 °FLots of rain. Partly sunny.8 mph94%29.89 "Hg3 mi
Weather by CustomWeather, © 2020

See weather overview

Advertising